Wind from 330 at 16 knots

Air temperature 7.0° C
Visibility: greater than 5.4 NM
Dewpoint 1.0° C

Last reported at 2014-Apr-18 14:20 UTC.
Time now 2014-Apr-18 16:21 UTC

Location: N 58°22' E 001°54'.
View on Google Maps.

See reports from other nearby stations

Tides Stations Pressure Air Temp Water Temp Dewpoint Dewpoint depression Visibility Wind Speed Wind Dir Waves Ship positions

  
sailing weather and tide predictions

SLEIPNER A PLATF weather

date/time (UTC)wind fromknots sea level pressurealtimeterstation pressurevisibilityair tempwater tempwave heightnotes
2014-Apr-18 15:20 330 16 7.0
2014-Apr-18 14:50 330 14 5.4 8.0
2014-Apr-18 14:20 330 16 5.4 7.0
2014-Apr-18 13:50 330 15 5.4 8.0
2014-Apr-18 13:10 330 18 5.4 8.0
2014-Apr-18 12:50 330 16 5.4 8.0
2014-Apr-18 12:20 330 17 5.4 8.0
2014-Apr-18 11:20 340 16 5.4 8.0
2014-Apr-18 10:50 340 18 5.4 8.0
2014-Apr-18 10:20 350 19 5.4 8.0
2014-Apr-18 09:50 340 20 5.4 7.0
2014-Apr-18 09:20 340 23 5.4 7.0
2014-Apr-18 08:51 340 24 5.4 7.0
2014-Apr-18 08:20 350 24 5.4 7.0
2014-Apr-18 07:50 350 23 5.4 7.0
2014-Apr-18 06:50 340 25 5.4 7.0
2014-Apr-18 06:20 350 24 5.4 7.0
2014-Apr-18 05:50 360 25 5.4 7.0
2014-Apr-18 05:20 360 29 5.4 6.0
2014-Apr-18 04:50 360 29 5.4 6.0
2014-Apr-18 04:20 350 31 5.4 6.0
2014-Apr-18 03:50 350 32 5.4 6.0
2014-Apr-18 03:20 360 34 5.4 6.0
2014-Apr-18 02:50 350 34 5.4 6.0
2014-Apr-18 02:20 360 37 5.4 7.0
2014-Apr-18 01:50 360 39 5.4 7.0
2014-Apr-18 01:20 350 39 5.4 7.0
2014-Apr-18 00:50 340 39 5.4 7.0
2014-Apr-18 00:20 350 40 5.4 7.0
2014-Apr-17 23:50 350 39 5.4 7.0
2014-Apr-17 23:20 350 41 5.4 7.0
2014-Apr-17 22:50 340 42 5.4 7.0
2014-Apr-17 22:20 340 45 5.4 7.0
2014-Apr-17 21:50 340 48 5.4 7.0
2014-Apr-17 21:20 330 42 5.4 7.0
2014-Apr-17 20:50 330 42 5.4 7.0
2014-Apr-17 20:20 320 40 5.4 7.0
2014-Apr-17 19:50 330 40 5.4 7.0
2014-Apr-17 19:20 330 40 5.4 7.0
2014-Apr-17 18:50 320 37 5.4 7.0
2014-Apr-17 18:20 320 37 5.4 8.0
2014-Apr-17 17:50 330 34 5.4 7.0 Light rain showers.
2014-Apr-17 16:20 320 33 5.4 8.0
2014-Apr-17 15:20 330 34 5.4 8.0
2014-Apr-17 14:51 320 31 5.4 8.0
2014-Apr-17 14:20 300 24 5.4 6.0
2014-Apr-17 13:50 290 25 5.4 6.0
2014-Apr-17 13:20 280 29 5.4 6.0 Light rain showers.
2014-Apr-17 12:50 280 32 5.4 6.0
2014-Apr-17 12:20 280 34 5.4 6.0
2014-Apr-17 11:50 290 35 5.4 7.0
2014-Apr-17 10:50 280 31 5.4 6.0 Light rain showers.
2014-Apr-17 10:19 250 31 5.4 7.0 Light rain showers.
2014-Apr-17 09:50 250 24 5.4 8.0 Light rain showers.
2014-Apr-17 09:20 260 27 5.4 8.0 Light rain showers.
2014-Apr-17 08:50 250 24 5.4 8.0
2014-Apr-17 08:20 270 23 5.4 8.0
2014-Apr-17 07:50 260 18 5.4 7.0
2014-Apr-17 07:20 260 19 5.4 7.0 Light rain.
2014-Apr-17 06:50 270 20 5.4 7.0 Light rain showers.
2014-Apr-17 06:20 280 20 5.4 7.0 Light rain showers.
2014-Apr-17 05:50 290 27 5.4 7.0 Light rain.
2014-Apr-17 05:20 250 34 4.3 8.0
2014-Apr-16 16:50 200 32 5.4 8.0
2014-Apr-16 16:20 200 31 5.4 8.0